[[{"header":{"parameterUnit":"m.s-1","parameterCategory":1,"la1":30.2991,"la2":30.254,"lo1":-89.0895,"lo2":-89.0444,"dy":0.0017,"dx":0.0017,"nx":28,"ny":28,"refTime":"2024-03-10T09:00:00:Z","depth":0,"parameterNumber":2,"parameterNumberName":"U-component_of_WINDS"},"data":[0,0,0,0,0,0,0,0,0,0,0,0,0,0,0,0,0,0,0,0,0,0,0,0,0,0,0,0,0,0,0,0,0,0,0,0,0,0,0,0,0,0,0,0,0,0,0,0,0,0,0,0,0,0,0,0,0,0,-1.6176,-1.6176,0,-1.6212,-1.6213,-1.6213,-1.6153,-1.6151,-1.6149,-1.6147,-1.6185,-1.6188,-1.6191,0,0,0,0,0,0,0,0,0,0,0,0,0,-1.6056,-1.6059,-1.6176,-1.6176,-1.6177,-1.6212,-1.6213,-1.6213,-1.6153,-1.6151,-1.6148,-1.6146,-1.6184,-1.6188,-1.6191,0,0,0,0,0,0,0,0,0,0,0,0,0,-1.6102,-1.606,-1.6176,-1.6151,-1.6149,-1.6212,-1.6213,-1.6213,-1.6154,-1.6151,-1.6148,-1.6145,-1.6183,-1.6187,-1.6192,-1.628,0,0,-1.6205,-1.6207,0,0,0,0,0,0,0,0,-1.61,-1.6107,-1.6154,-1.6153,-1.6151,-1.6175,-1.6184,-1.6236,-1.6155,-1.6152,-1.6147,-1.6143,-1.6184,-1.6188,-1.6202,-1.6282,-1.6284,-1.6205,-1.6208,-1.621,-1.6211,0,0,0,0,0,0,0,-1.6097,-1.6105,-1.619,-1.6155,-1.6153,-1.6139,-1.6142,-1.6194,-1.6185,-1.6152,-1.6148,-1.6153,-1.6183,-1.6198,-1.6202,-1.6284,-1.6205,-1.6209,-1.6212,-1.6214,-1.6439,-1.6442,0,0,0,0,0,0,-1.6096,-1.6102,-1.6189,-1.6191,-1.6117,-1.6144,-1.6147,-1.617,-1.6184,-1.6183,-1.6156,-1.615,-1.6192,-1.6197,-1.6203,-1.6308,-1.621,-1.6214,-1.6217,-1.6436,-1.644,-1.6443,0,0,0,0,0,0,-1.6094,-1.6105,-1.6188,-1.6146,-1.6155,-1.6149,-1.6176,-1.6173,-1.6188,-1.6187,-1.6185,-1.6172,-1.619,-1.6197,-1.6262,-1.6309,-1.6216,-1.622,-1.6432,-1.6437,-1.6441,-1.6518,0,0,0,0,0,0,-1.6091,-1.6104,-1.6137,-1.6147,-1.6158,-1.6245,-1.6179,-1.6176,-1.6195,-1.6188,-1.6202,-1.6202,-1.6188,-1.6255,-1.6266,-1.6313,-1.6223,-1.6427,-1.6434,-1.644,-1.6511,-1.6525,-1.6537,0,0,0,0,0,-1.6087,-1.6158,-1.6139,-1.615,-1.6199,-1.6248,-1.6254,-1.6236,-1.6199,-1.6233,-1.6232,-1.6201,-1.6302,-1.6262,-1.6274,-1.6323,-1.6424,-1.6432,-1.6439,-1.6506,-1.6522,-1.6537,0,0,0,0,0,0,-1.6154,-1.6158,-1.6138,-1.6214,-1.6231,-1.6238,-1.6279,-1.6255,-1.6283,-1.6275,-1.6252,-1.6256,-1.6325,-1.633,-1.6286,-1.6409,-1.6357,-1.6367,-1.6403,-1.6419,-1.6432,-1.6429,-1.6227,0,0,0,0,0,-1.6178,-1.6217,-1.6218,-1.6286,-1.6295,-1.6286,-1.6306,-1.6291,-1.6308,-1.6315,-1.6319,-1.6337,-1.6372,-1.6396,-1.6429,-1.6512,-1.6514,-1.6551,-1.6564,-1.6575,-1.6584,-1.6628,-1.6645,-1.6468,-1.6468,-1.6468,0,0,-1.6227,-1.6234,-1.626,-1.6299,-1.631,-1.6351,-1.6292,-1.6338,-1.6368,-1.6322,-1.6383,-1.6387,-1.6405,-1.6479,-1.6512,-1.6486,-1.6633,-1.6584,-1.6593,-1.6596,-1.6638,-1.6655,-1.6669,-1.6473,-1.6472,-1.6471,0,0,-1.6338,-1.6347,-1.6404,-1.6417,-1.6434,-1.6428,-1.6442,-1.6452,-1.6453,-1.6513,-1.6479,-1.6515,-1.6577,-1.6591,-1.6607,-1.6724,-1.6696,-1.6735,-1.6802,-1.6846,-1.686,-1.6872,-1.6913,-1.6929,-1.6744,-1.6744,-1.6745,0,-1.6397,-1.6457,-1.6437,-1.6485,-1.6503,-1.6463,-1.6521,-1.6534,-1.6562,-1.6575,-1.6545,-1.6622,-1.6631,-1.6708,-1.6737,-1.6751,-1.6766,-1.6733,-1.6859,-1.6871,-1.6882,-1.6922,-1.6938,-1.6749,-1.6748,-1.6748,-1.6748,0,-1.6529,-1.6571,-1.6615,-1.6643,-1.6666,-1.6719,-1.6707,-1.6733,-1.6716,-1.6713,-1.6775,-1.6785,-1.6819,-1.6837,-1.6821,-1.6912,-1.6895,-1.6863,-1.6809,-1.6904,-1.6941,-1.6956,-1.6756,-1.6754,-1.6753,-1.6751,0,0,-1.6683,-1.6699,-1.6715,-1.6727,-1.6744,-1.6776,-1.6827,-1.686,-1.6883,-1.6904,-1.6946,-1.7,-1.697,-1.6988,-1.6973,-1.7012,-1.7104,-1.6974,-1.6975,-1.6998,-1.7205,-1.7229,-1.7246,-1.7086,-1.7088,-1.7091,-1.7203,0,-1.6793,-1.6881,-1.6864,-1.695,-1.6989,-1.6951,-1.6996,-1.7011,-1.701,-1.7043,-1.7042,-1.708,-1.7038,-1.7048,-1.7085,-1.7085,-1.7145,-1.7076,-1.7125,-1.7127,-1.7121,-1.7266,-1.7291,-1.7397,-1.7217,-1.722,-1.7221,0,-1.6933,-1.6959,-1.7049,-1.7059,-1.7075,-1.7115,-1.7144,-1.7176,-1.7193,-1.7189,-1.721,-1.7188,-1.7239,-1.7186,-1.7256,-1.721,-1.7229,-1.7232,-1.7236,-1.724,-1.718,-1.7273,-1.743,-1.7446,-1.7244,-1.7242,-1.724,0,-1.7037,-1.7093,-1.7154,-1.7166,-1.718,-1.7209,-1.7216,-1.723,-1.7251,-1.7277,-1.729,-1.7322,-1.7339,-1.7364,-1.7352,-1.7314,-1.7425,-1.737,-1.7423,-1.7424,-1.7448,-1.7447,-1.761,-1.7461,-1.7461,-1.746,-1.746,0,-1.7161,-1.7218,-1.7201,-1.7238,-1.73,-1.7281,-1.7343,-1.7346,-1.7359,-1.7397,-1.7366,-1.7402,-1.7384,-1.7419,-1.741,-1.747,-1.7478,-1.7477,-1.7473,-1.7479,-1.7479,-1.7491,-1.7484,-1.7465,-1.7464,-1.7463,-1.7462,0,-1.7287,-1.7278,-1.7342,-1.735,-1.7353,-1.7399,-1.7406,-1.7441,-1.7437,-1.7486,-1.7496,-1.7491,-1.753,-1.752,-1.7564,-1.7558,-1.7633,-1.7621,-1.7627,-1.7624,-1.7678,-1.7673,-1.7855,-1.7878,-1.7714,-1.7716,-1.7717,0,-1.7367,-1.7409,-1.7422,-1.7445,-1.7454,-1.7491,-1.7513,-1.7495,-1.7519,-1.7541,-1.7574,-1.7611,-1.7639,-1.7705,-1.7705,-1.7738,-1.7726,-1.7788,-1.7731,-1.7736,-1.7727,-1.7725,-1.7729,-1.7799,-1.7801,-1.7802,-1.7803,0,-1.751,-1.7503,-1.7535,-1.7565,-1.7591,-1.7614,-1.7634,-1.7655,-1.7639,-1.7667,-1.7707,-1.7729,-1.7774,-1.7811,-1.7841,-1.7849,-1.7824,-1.7821,-1.7835,-1.7842,-1.7844,-1.7843,-1.7658,-1.7817,-1.7816,-1.7815,-1.7814,-1.7813,-1.7615,-1.7651,-1.7665,-1.7702,-1.7715,-1.7735,-1.7768,-1.7769,-1.7802,-1.7836,-1.7824,-1.787,-1.7886,-1.7924,-1.7936,-1.7972,-1.7949,-1.7969,-1.7974,-1.7979,-1.7986,-1.7838,-1.7977,-1.7977,-1.7976,-1.7976,-1.7976,0,-1.7756,-1.7764,-1.7797,-1.7826,-1.7855,-1.7829,-1.785,-1.7876,-1.7916,-1.7933,-1.7962,-1.8008,-1.8044,-1.8047,-1.8081,-1.8109,-1.8099,-1.8119,-1.8116,-1.8119,-1.8005,-1.7989,-1.8127,-1.8127,-1.8127,-1.8127,-1.8127,-1.8126,-1.7833,-1.7893,-1.7888,-1.7954,-1.7961,-1.8005,-1.802,-1.8038,-1.8051,-1.8104,-1.8134,-1.8135,-1.8147,-1.8182,-1.8214,-1.8214,-1.8228,-1.8252,-1.8248,-1.8142,-1.8127,-1.8112,-1.8097,-1.8255,-1.8255,-1.8359,-1.836,-1.836]},{"header":{"parameterUnit":"m.s-1","parameterCategory":1,"la1":30.2991,"la2":30.254,"lo1":-89.0895,"lo2":-89.0444,"dy":0.0017,"dx":0.0017,"nx":28,"ny":28,"refTime":"2024-03-10T09:00:00:Z","depth":0,"parameterNumber":3,"parameterNumberName":"V-component_of_WINDS"},"data":[0,0,0,0,0,0,0,0,0,0,0,0,0,0,0,0,0,0,0,0,0,0,0,0,0,0,0,0,0,0,0,0,0,0,0,0,0,0,0,0,0,0,0,0,0,0,0,0,0,0,0,0,0,0,0,0,0,0,2.6047,2.6046,0,2.6037,2.6037,2.6037,2.5998,2.5997,2.5996,2.5995,2.5985,2.5986,2.5986,0,0,0,0,0,0,0,0,0,0,0,0,0,2.6029,2.603,2.6047,2.6046,2.6046,2.6037,2.6037,2.6037,2.5998,2.5997,2.5996,2.5995,2.5985,2.5986,2.5986,0,0,0,0,0,0,0,0,0,0,0,0,0,2.603,2.603,2.6047,2.6026,2.6024,2.6037,2.6037,2.6037,2.5998,2.5997,2.5996,2.5994,2.5985,2.5986,2.5986,2.6019,0,0,2.5989,2.5989,0,0,0,0,0,0,0,0,2.603,2.6031,2.6029,2.6027,2.6025,2.6017,2.6027,2.6031,2.5999,2.6008,2.5995,2.5994,2.5997,2.5997,2.5998,2.6019,2.6018,2.5989,2.599,2.599,2.599,0,0,0,0,0,0,0,2.603,2.6031,2.6043,2.6029,2.6027,2.6016,2.6015,2.6028,2.601,2.6007,2.6004,2.6004,2.5996,2.5997,2.5997,2.6018,2.5989,2.599,2.599,2.5991,2.6063,2.6064,0,0,0,0,0,0,2.6033,2.6031,2.6043,2.6043,2.6024,2.6018,2.6016,2.6021,2.601,2.6007,2.6005,2.6002,2.5996,2.5996,2.5997,2.6033,2.599,2.5991,2.5991,2.6061,2.6063,2.6065,0,0,0,0,0,0,2.6033,2.6035,2.6044,2.6036,2.6036,2.602,2.6025,2.6022,2.6023,2.6008,2.6005,2.601,2.5995,2.5996,2.6013,2.6032,2.5991,2.5992,2.606,2.6062,2.6064,2.6106,0,0,0,0,0,0,2.6033,2.6035,2.6047,2.6037,2.6037,2.6061,2.6027,2.6023,2.6025,2.6021,2.6012,2.6009,2.5994,2.6012,2.6014,2.6032,2.5993,2.6058,2.6061,2.6063,2.6102,2.6109,2.6114,0,0,0,0,0,2.6032,2.606,2.6048,2.605,2.6052,2.6062,2.6062,2.6044,2.6027,2.6039,2.6029,2.6009,2.603,2.6014,2.6016,2.6035,2.6057,2.606,2.6063,2.61,2.6108,2.6114,0,0,0,0,0,0,2.6073,2.6058,2.6045,2.607,2.6068,2.6055,2.607,2.6054,2.6056,2.6052,2.603,2.6028,2.6049,2.6044,2.6027,2.6065,2.604,2.6044,2.6067,2.6074,2.608,2.608,2.5993,0,0,0,0,0,2.6085,2.6094,2.6081,2.6104,2.6103,2.6087,2.6091,2.6077,2.6074,2.6072,2.6064,2.6061,2.6066,2.607,2.6075,2.6102,2.6098,2.6116,2.6121,2.6126,2.6129,2.6141,2.6148,2.6075,2.6075,2.6075,0,0,2.611,2.6103,2.611,2.6112,2.6109,2.6118,2.6086,2.6098,2.6104,2.6074,2.609,2.6083,2.6079,2.6101,2.611,2.6097,2.6149,2.613,2.6134,2.6135,2.6145,2.6152,2.6158,2.6077,2.6077,2.6076,0,0,2.6159,2.6156,2.6174,2.6171,2.6166,2.6154,2.6159,2.6149,2.6143,2.6159,2.6136,2.6143,2.6154,2.615,2.615,2.6198,2.6179,2.62,2.623,2.6242,2.6248,2.6253,2.6268,2.6274,2.6203,2.6203,2.6203,0,2.6191,2.6204,2.6185,2.6198,2.6199,2.6172,2.6189,2.6187,2.6184,2.6185,2.6171,2.6182,2.6177,2.6197,2.6209,2.621,2.6213,2.62,2.6249,2.6254,2.6258,2.6272,2.6278,2.6206,2.6205,2.6205,2.6205,0,2.6242,2.6252,2.6267,2.6264,2.6266,2.6282,2.6265,2.627,2.6256,2.6246,2.6261,2.6254,2.6256,2.626,2.6247,2.6278,2.627,2.6253,2.6227,2.6268,2.628,2.6286,2.6209,2.6208,2.6208,2.6207,0,0,2.6317,2.6302,2.6308,2.6306,2.6298,2.6304,2.6318,2.6319,2.6323,2.6322,2.6332,2.6341,2.6324,2.6324,2.6311,2.6322,2.6357,2.6303,2.6302,2.6311,2.6389,2.64,2.6407,2.6346,2.6347,2.6347,2.6388,0,2.6362,2.6384,2.6367,2.6392,2.64,2.6374,2.6385,2.6381,2.6373,2.6377,2.6367,2.6373,2.6352,2.6352,2.6361,2.6351,2.6372,2.6348,2.6353,2.6354,2.6353,2.6414,2.6427,2.6466,2.6393,2.6394,2.6395,0,2.6418,2.6419,2.6444,2.6433,2.6436,2.6446,2.6445,2.6451,2.6445,2.6438,2.6438,2.6421,2.6432,2.6408,2.6423,2.6407,2.6408,2.6403,2.6404,2.6403,2.6376,2.6412,2.6478,2.6483,2.6403,2.6402,2.6402,0,2.6468,2.6475,2.649,2.6489,2.6478,2.6485,2.6481,2.6474,2.6475,2.6475,2.6475,2.6476,2.6476,2.6477,2.6461,2.6445,2.6477,2.6452,2.647,2.647,2.6477,2.6476,2.6541,2.6481,2.6481,2.648,2.648,0,2.652,2.6536,2.6512,2.6522,2.6539,2.6519,2.6536,2.6529,2.6523,2.653,2.6508,2.6515,2.6494,2.6498,2.6485,2.6498,2.6499,2.6493,2.6489,2.6493,2.6494,2.6493,2.6489,2.6482,2.6482,2.6481,2.6481,0,2.6577,2.6562,2.6577,2.6565,2.6562,2.6574,2.6563,2.6571,2.6561,2.6569,2.657,2.6554,2.6558,2.6542,2.6544,2.6535,2.6554,2.6546,2.6555,2.6552,2.6571,2.6568,2.6636,2.6643,2.658,2.658,2.6581,0,2.661,2.6622,2.661,2.6613,2.6609,2.6615,2.6616,2.6597,2.6599,2.6593,2.6601,2.6603,2.6604,2.6611,2.6599,2.66,2.6591,2.6615,2.6591,2.6595,2.6589,2.6588,2.6588,2.6619,2.662,2.6621,2.6621,0,2.667,2.6662,2.6664,2.6664,2.6666,2.6665,2.6662,2.6666,2.6645,2.6649,2.6652,2.6653,2.6654,2.6656,2.6654,2.6648,2.6631,2.6629,2.6633,2.6637,2.6641,2.6637,2.6567,2.6627,2.6626,2.6626,2.6626,2.6625,2.6715,2.6723,2.6716,2.6719,2.6715,2.6713,2.6719,2.6709,2.6712,2.6711,2.67,2.6705,2.6698,2.6694,2.669,2.6693,2.6682,2.6688,2.6689,2.6691,2.6693,2.6642,2.6693,2.6693,2.6693,2.6693,2.6692,0,2.6771,2.6765,2.6769,2.6765,2.6767,2.6751,2.6747,2.675,2.6755,2.675,2.6751,2.6755,2.6756,2.6744,2.6744,2.6749,2.674,2.6749,2.6747,2.6746,2.6704,2.67,2.6755,2.6755,2.6755,2.6755,2.6755,2.6755,2.6801,2.6814,2.6805,2.6815,2.6808,2.6813,2.6812,2.681,2.6806,2.681,2.6811,2.6804,2.6795,2.6794,2.6794,2.6791,2.6791,2.6802,2.6795,2.6755,2.6749,2.6743,2.6739,2.6802,2.6802,2.6836,2.6837,2.6837]}]]